Time,TemperatureF,DewpointF,PressureIn,WindDirection,WindDirectionDegrees,WindSpeedMPH,WindSpeedGustMPH,Humidity,HourlyPrecipIn,Conditions,Clouds,dailyrainin,SolarRadiationWatts/m^2,SoftwareType,DateUTC
2013-03-10 00:00:00,39.8,39.8,29.71,East,100,19.0,26.0,100,0.00,,,0.00,0,Wunderground v.1.15,2013-03-10 00:00:00,
2013-03-10 00:30:00,40.1,40.1,29.72,East,95,23.0,23.0,100,0.00,,,0.00,0,Wunderground v.1.15,2013-03-10 00:30:00,
2013-03-10 01:00:00,40.0,36.2,29.73,ESE,116,20.0,20.0,86,0.00,,,0.00,0,Wunderground v.1.15,2013-03-10 01:00:00,
2013-03-10 01:30:00,39.9,35.8,29.73,ESE,113,17.0,19.0,85,0.00,,,0.00,0,Wunderground v.1.15,2013-03-10 01:30:00,
2013-03-10 02:00:00,39.5,34.8,29.73,East,94,16.0,16.0,83,0.00,,,0.00,0,Wunderground v.1.15,2013-03-10 02:00:00,
2013-03-10 02:30:00,39.5,35.1,29.73,East,94,18.0,20.0,84,0.00,,,0.00,0,Wunderground v.1.15,2013-03-10 02:30:00,
2013-03-10 03:00:00,39.2,34.5,29.73,ESE,107,18.0,28.0,83,0.00,,,0.01,0,Wunderground v.1.15,2013-03-10 03:00:00,
2013-03-10 09:30:00,38.5,35.0,29.78,East,87,19.0,19.0,87,0.00,,,0.07,18,Wunderground v.1.15,2013-03-10 09:30:00,
2013-03-10 10:00:00,38.6,35.1,29.78,East,90,17.0,17.0,87,0.00,,,0.07,23,Wunderground v.1.15,2013-03-10 10:00:00,
2013-03-10 10:30:00,39.0,36.0,29.78,ESE,112,19.0,19.0,89,0.00,,,0.07,44,Wunderground v.1.15,2013-03-10 10:30:00,
2013-03-10 11:00:00,38.9,35.9,29.80,East,80,21.0,21.0,89,0.00,,,0.07,35,Wunderground v.1.15,2013-03-10 11:00:00,
2013-03-10 11:29:00,39.2,35.9,29.80,East,96,21.0,21.0,88,0.00,,,0.07,169,Wunderground v.1.15,2013-03-10 11:29:00,
2013-03-10 12:00:00,39.2,35.1,29.81,ESE,109,20.0,20.0,85,0.00,,,0.07,135,Wunderground v.1.15,2013-03-10 12:00:00,
2013-03-10 12:30:00,41.4,36.6,29.81,SE,125,20.0,23.0,83,0.00,,,0.07,541,Wunderground v.1.15,2013-03-10 12:30:00,
2013-03-10 13:00:00,40.6,35.5,29.81,ENE,78,21.0,24.0,82,0.00,,,0.07,195,Wunderground v.1.15,2013-03-10 13:00:00,
2013-03-10 13:30:00,40.0,35.3,29.81,East,81,19.0,19.0,83,0.00,,,0.07,274,Wunderground v.1.15,2013-03-10 13:30:00,
2013-03-10 14:00:00,40.2,35.4,29.82,East,87,19.0,19.0,83,0.00,,,0.07,246,Wunderground v.1.15,2013-03-10 14:00:00,
2013-03-10 14:30:00,39.6,34.9,29.82,East,99,20.0,21.0,83,0.00,,,0.07,172,Wunderground v.1.15,2013-03-10 14:30:00,
2013-03-10 15:00:00,39.5,34.2,29.83,East,93,22.0,22.0,81,0.00,,,0.07,274,Wunderground v.1.15,2013-03-10 15:00:00,
2013-03-10 15:30:00,40.3,34.9,29.83,ESE,113,22.0,22.0,81,0.00,,,0.07,385,Wunderground v.1.15,2013-03-10 15:30:00,
2013-03-10 16:00:00,39.2,33.2,29.84,ENE,58,21.0,21.0,79,0.00,,,0.07,139,Wunderground v.1.15,2013-03-10 16:00:00,
2013-03-10 16:30:00,38.8,33.2,29.84,ESE,109,21.0,23.0,80,0.00,,,0.07,77,Wunderground v.1.15,2013-03-10 16:30:00,
2013-03-10 17:00:00,38.1,32.5,29.85,East,96,22.0,22.0,80,0.00,,,0.07,44,Wunderground v.1.15,2013-03-10 17:00:00,
2013-03-10 17:30:00,38.0,33.3,29.86,ESE,109,21.0,21.0,83,0.00,,,0.07,19,Wunderground v.1.15,2013-03-10 17:30:00,
2013-03-10 18:00:00,37.2,31.0,29.88,ESE,120,23.0,23.0,78,0.00,,,0.07,12,Wunderground v.1.15,2013-03-10 18:00:00,
2013-03-10 18:30:00,36.7,29.8,29.88,ESE,118,22.0,22.0,76,0.00,,,0.07,0,Wunderground v.1.15,2013-03-10 18:30:00,
2013-03-10 19:00:00,36.8,30.3,29.90,East,87,20.0,20.0,77,0.00,,,0.07,0,Wunderground v.1.15,2013-03-10 19:00:00,
2013-03-10 19:30:00,36.3,30.1,29.91,ESE,113,21.0,21.0,78,0.00,,,0.07,0,Wunderground v.1.15,2013-03-10 19:30:00,
2013-03-10 20:00:00,36.2,29.4,29.91,East,99,21.0,21.0,76,0.00,,,0.07,0,Wunderground v.1.15,2013-03-10 20:00:00,
2013-03-10 20:30:00,35.9,28.7,29.92,ESE,105,20.0,25.0,75,0.00,,,0.07,0,Wunderground v.1.15,2013-03-10 20:30:00,
2013-03-10 21:00:00,35.1,29.2,29.93,East,86,19.0,19.0,79,0.00,,,0.07,0,Wunderground v.1.15,2013-03-10 21:00:00,
2013-03-10 21:30:00,34.9,25.8,29.93,East,90,17.0,17.0,69,0.00,,,0.07,0,Wunderground v.1.15,2013-03-10 21:30:00,
2013-03-10 22:00:00,34.5,26.7,29.94,East,90,16.0,16.0,73,0.00,,,0.07,0,Wunderground v.1.15,2013-03-10 22:00:00,
2013-03-10 22:30:00,34.4,25.3,29.94,East,90,19.0,21.0,69,0.00,,,0.07,0,Wunderground v.1.15,2013-03-10 22:30:00,
2013-03-10 23:00:00,34.3,18.9,29.95,East,99,16.0,20.0,53,0.00,,,0.07,0,Wunderground v.1.15,2013-03-10 23:00:00,
2013-03-10 23:30:00,34.0,18.6,29.96,East,95,16.0,24.0,53,0.00,,,0.07,0,Wunderground v.1.15,2013-03-10 23:30:00,